{"data":{"norad_id":54785,"epoch":"2026-05-25T00:08:16.914048Z","epoch_age_seconds":71083,"freshness":"FRESH","line1":"1 54785U 22175AD  26145.00575132 -.00000076  00000+0  13344-4 0  9999","line2":"2 54785  53.2149   6.3948 0001340  91.0103 269.1043 15.08841909192212","mean_motion":15.08841909,"eccentricity":0.000134,"inclination_deg":53.2149,"raan_deg":6.3948,"arg_perigee_deg":91.0103,"mean_anomaly_deg":269.1043,"bstar":1.3344e-5,"rev_number":19221,"period_min":95.437433929336,"perigee_km":538.81055873074,"apogee_km":540.66454911119,"semimajor_km":6917.874553921,"source":"CELESTRAK","updated_at":"2026-05-25T13:38:17.693554Z"}}